STARLINK-6100, 57125

Orbit data source: Space-Track

STARLINK-6100, 57125 is a payload satellite owned by SpaceX/Seattle (US) in LEO that was launched on Fri, 23 Jun 2023 UTC via an FALCON 9 launch vehicle from the Air Force Eastern Test Range (AFETR). Payload-class satellites include a variety of spacecraft equipped with specific instruments for various scientific and technological missions. These include communications satellites like Starlink; space stations such as the ISS; scientific satellites like the Hubble; Earth observation satellites from companies like Planet Labs, Umbra, and HawkEye 360; GPS; miniature CubeSats for education and research; and military/defense satellites.

Loading next visibility...
Identifier
57125, 2023-090AA
Orbit
LEO
Last TLE update
22 hours ago
Origin
Manufacturer
SpaceX/Seattle
Mission
Operational Commercial Communications
Bus & Motor
STARLINK, Unknown motor
Mass
305 kg wet, ~290 kg dry
Launch date (UTC)
2023-06-23 (2 years ago)
Launch vehicle
FALCON 9
Launch site
Air Force Eastern Test Range (AFETR)
Object type
Payload
Rocket body
Debris
Shape & HBR
Box + 1 Pan, 9 m
Radar Cross Section
11.087 m², Large (>1 m²)

Expand to show TLE details & history

TLE from 22 hours ago
0 STARLINK-6100
1 57125U 23090AA  25187.28447759  .00000690  00000-0  66176-4 0  9998
2 57125  43.0028 160.8713 0001336 285.7202  74.3493 15.02537226113305
Epoch: 2025-07-06T06:49Z
TLE epoch observation values (Epoch: 2025-07-06T06:49:38.863Z)
Latitude
-0.00003°
Longitude
133.94897°
Altitude
558.604 km
Speed
7.584 km/s
True Right ascension
10h 43m 29s
True Declination
0° 00' 00"
Sunlit
Object was in daylight at epoch
Visualization orbit readout
Latitude
-20.04673°
Longitude
106.02009°
Altitude
562.801 km
Speed
7.581 km/s
Apparent Right ascension
07h 15m 08s
Apparent Declination
-32° 36' 47"
Sunlit
Object is in daylight
Visualization observer readout
Local Sidereal Time
17:03:04
Azimuth
274.96° WNW
Elevation
-62.567°
Doppler factor
1
Orbital elements
Apogee altitude
561.926 km
Perigee altitude
560.072 km
Semi-major axis
6,939.136 km
Eccentricity
0.00013
Inclination
43.0028°
RAAN
160.8713°
Arg. of periapsis
285.7202°
True anomaly
Unknown
Mean anomaly
74.3493°
Eccentric anomaly
Unknown
Mean motion
3.75478 °/min
Orbital period
95.88 mins
BSTAR
0.000066176
Loading maneuver chart data...
Loading SW <> Apogee altitude chart data...
Loading historical data...
Loading historical data...
Loading historical data...
Loading historical data...
Loading historical data...
Loading historical data...
Loading historical data...

STARLINK-6100 Visibility forecast

Observer location: undefined°, undefined°

Span
Click to sort rows by Start time (UTC) header in descending order
Start Az.
Max El. time (UTC)
Max El. Az.
Max El.
End time (UTC)
End Az.
7 mins2025-07-07 05:33:51.505Z289.224° WNW2025-07-07 05:37:51.505Z44.361° NE43.028°2025-07-07 05:40:51.505Z96.761° ESE
6 mins2025-07-07 07:15:51.505Z266.434° W2025-07-07 07:17:51.505Z221.132° SW31.509°2025-07-07 07:21:51.505Z142.825° SSE
5 mins2025-07-08 00:30:51.505Z180.059° SSW2025-07-08 00:32:51.505Z136.611° SSE22.802°2025-07-08 00:35:51.505Z90.332° ESE
7 mins2025-07-08 02:09:51.505Z250.562° W2025-07-08 02:12:51.505Z152.444° SSE44.999°2025-07-08 02:16:51.505Z72.053° E
6 mins2025-07-08 03:50:51.505Z285.659° WNW2025-07-08 03:53:51.505Z7.265° NNE39.293°2025-07-08 03:56:51.505Z74.257° E
|